User: anonymous   Login
Location: Milton
(43.5183°N, 79.8775°W)
Time: 13:49:16
(UTC+00:00)
Language:

LilacSat-2 - Orbit

View from above orbital plane
View from above orbital plane
View from above satellite
View from above satellite

Ground track
Ground track

The orbit data is extracted from the following two-line orbital elements,

1 40908U 15049K   23086.23130992  .00008946  00000-0  43458-3 0  9992
2 40908  97.5267  89.5789 0016180 113.3952 303.4024 15.18565228415352
Epoch (UTC): 27 March 2023 05:33:05
Eccentricity: 0.0016180
inclination: 97.5267°
perigee height: 499 km
apogee height: 521 km
right ascension of ascending node: 89.5789°
argument of perigee: 113.3952°
revolutions per day: 15.18565228
mean anomaly at epoch: 303.4024°
orbit number at epoch: 41535

The dashed part of the orbit path shows where the satellite is in the earth's shadow,  

DLR